Location: Kernascl�den
(48.0062°N, 3.3198°W)
Time: 12:29:31
(UTC+00:00)

Cosmos 1726 Rocket - Pass Details

Date: 21 January 2021
Orbit: 604 x 628 km, 82.5° (Epoch: 06 March)

Event Time Altitude Azimuth Distance (km) Brightness Sun altitude
Rises 17:52:56 0° 351° (N) 2,884 6.9 -9.4°
Reaches altitude 10° 17:55:10 10° 352° (N) 1,979 6.0 -9.8°
Maximum altitude 17:59:33 81° 80° (E) 630 3.5 -10.5°
Drops below altitude 10° 18:03:57 10° 168° (SSE) 1,978 6.2 -11.2°
Sets 18:06:10 0° 170° (S) 2,883 7.1 -11.5°
